Location: Unspecified
(48.5539°N, 71.6350°W)
Time: 08:07:57
(UTC-05:00)

ISS - Pass Details

Date: 25 January 2019
Orbit: 403 x 411 km, 51.6° (Epoch: 20 February)

Event Time Altitude Azimuth Distance (km) Brightness Sun altitude
Rises 00:20:24 0° 286° (WNW) 2,350 - -60.2°
Reaches altitude 10° 00:22:50 10° 269° (W) 1,484 - -60.1°
Maximum altitude 00:25:21 20° 220° (SW) 1,019 - -60.0°
Drops below altitude 10° 00:27:51 10° 171° (S) 1,477 - -59.9°
Sets 00:30:17 0° 154° (SSE) 2,335 - -59.8°
